TIME,DELAY(SENSOR),PRES,OXYGEN,RAWTEMP,T(OPTODE),TCPHASE,FLUOR,BETA(BETA700),BETA(BETA412),BETA(BETA440),CDOM,C(CSC),ED(ED411.90),ED(ED443.80),ED(ED489.40),ED(ED554.70),LU(LU412.20),LU(LU443.80),LU(LU489.40),LU(LU555.00),COMP,TILTX,TILTY,CHECK
1340835111,5804,833.7000122070312000,187.9382934570312500,480.3597106933594000,8.1375617980957030,38.3269081115722660,53,102,101,80,82,14792,2146958208,2147516717,2147287524,2147516041,2147088310,2146922121,2147710976,2147117741,2036,-1,8,57935
1340838707,5803,962.9899902343750000,227.8128051757812500,532.6320800781250000,6.5134201049804690,36.8692283630371100,53,103,100,79,81,14785,2146955355,2147516544,2147297572,2147526080,2147092608,2146910628,2147723117,2147117275,3242,-1,8,34412
1340842307,5806,994.7100219726562000,239.5877075195312500,542.1859130859375000,6.2144761085510250,36.4212303161621100,53,103,100,80,81,14778,2146962578,2147515766,2147300544,2147526729,2147093842,2146913472,2147726518,2147118363,2562,-1,8,21359
1340845907,5806,998.0999755859375000,241.7967987060547000,543.5980224609375000,6.1702289581298830,36.3339309692382800,53,103,101,79,82,14779,2146960356,2147515739,2147296265,2147530633,2147091419,2146920128,2147725037,2147118253,2918,-1,8,8745
1340849507,5804,1009.3400268554688000,243.4929046630859400,544.2528076171875000,6.1497077941894530,36.2596397399902340,52,103,99,79,83,14775,2146956982,2147520292,2147295990,2147530340,2147092653,2146927552,2147722075,2147118875,2492,-1,8,6156
1340853107,5804,1011.2000122070312000,245.1118011474609400,545.5200195312500000,6.1099829673767090,36.2011184692382800,52,104,109,79,81,14773,2146957997,2147517504,2147297965,2147527881,2147093019,2146919652,2147725110,2147118290,2943,-1,8,8960
1340856707,5806,1003.0499877929688000,247.5346069335937500,549.9329833984375000,5.9715461730957030,36.1605110168457000,52,107,101,79,82,14773,2146955830,2147519716,2147300160,2147531163,2147091392,2146914130,2147731346,2147117449,2327,-1,8,32739
1340860307,5806,1001.0100097656250000,251.6707000732422000,552.0029296875000000,5.9065570831298830,35.9950714111328100,52,103,100,79,82,14771,2146958326,2147519250,2147298358,2147527104,2147095469,2146917101,2147722066,2147118125,3465,-1,8,15488
1340863907,5809,1010.0999755859375000,250.9541931152343800,553.1851196289062000,5.8694291114807130,36.0514984130859400,52,104,102,80,83,14773,2146955328,2147516041,2147300196,2147530221,2147091538,2146916598,2147727387,2147115035,53,-1,8,573
1340867507,5808,1004.9899902343750000,251.1566009521484400,552.3703002929688000,5.8950200080871580,36.0261306762695300,52,102,100,79,83,14770,2146955922,2147516781,2147297618,2147529856,2147090779,2146914450,2147726912,2147119021,263,-1,8,38018
1340871107,5805,1018.0800170898438000,252.6020050048828000,553.1060791015625000,5.8719100952148440,35.9698295593261700,52,103,101,80,81,14769,2146963392,2147517668,2147297682,2147533741,2147093056,2146912000,2147723309,2147115108,3351,-1,8,7925
1340874707,5807,1019.3499755859375000,252.1179962158203000,552.1943969726562000,5.9005451202392580,35.9760093688964840,52,103,100,79,82,14749,2146956937,2147515812,2147298368,2147530166,2147089325,2146919204,2147729892,2147117211,2295,-1,8,32263
1340878307,5807,1010.5700073242188000,249.2798004150390600,550.3162231445312000,5.9595170021057130,36.0814704895019500,52,105,102,81,81,14754,2146958299,2147519104,2147299821,2147528365,2147089563,2146916278,2147727552,2147117897,514,-1,8,10702
1340881907,5807,1022.7399902343750000,250.1665039062500000,550.5474243164062000,5.9522590637207030,36.0417785644531250,53,103,101,78,82,14755,2146957723,2147514587,2147301440,2147528475,2147090102,2146920822,2147724827,2147116269,140,-1,8,42307
1340885507,5807,1017.5100097656250000,247.4654998779297000,549.2817993164062000,5.9919829368591310,36.1521606445312500,52,102,101,79,82,14754,2146956324,2147520914,2147299547,2147529700,2147088905,2146913453,2147728603,2147114550,170,-2,8,11608
1340889107,5808,1016.0300292968750000,246.4167022705078000,547.5535278320312000,6.0462088584899900,36.1730003356933600,51,105,101,80,82,14752,2146956233,2147522505,2147299675,2147528100,2147089024,2146923382,2147730532,2147115419,72,-1,8,47250
1340892707,5807,1026.5200195312500000,246.0903015136718800,548.1567993164062000,6.0272850990295410,36.2003517150878900,51,104,100,78,81,14747,2146956516,2147518308,2147298733,2147527561,2147091529,2146919131,2147727808,2147115136,505,-1,8,45122
1340896307,5806,1020.9600219726562000,246.2660980224609400,548.8348999023438000,6.0060081481933590,36.2039604187011700,52,103,101,81,81,14752,2146958546,2147516123,2147298029,2147530880,2147091254,2146919753,2147729910,2147118390,538,-1,8,42977
1340899907,5810,1022.4299926757812000,246.8560028076172000,549.0540161132812000,5.9991340637207030,36.1780700683593750,52,102,99,80,82,14752,2146955785,2147517632,2147300498,2147528219,2147091072,2146913142,2147723053,2147114267,32,-1,8,51651
1340903507,5803,1020.9099731445312000,247.1022033691406200,549.3162841796875000,5.9909000396728520,36.1706809997558600,52,101,101,80,82,14750,2146957997,2147522404,2147300196,2147530459,2147089270,2146913746,2147727241,2147114852,3522,-1,8,59595
1340907107,5806,1022.2999877929688000,248.0567016601562500,550.5026855468750000,5.9536628723144530,36.1446990966796900,53,103,101,79,81,14750,2146963090,2147514148,2147300288,2147527780,2147090258,2146916672,2147727497,2147117312,3256,-1,8,9375
1340910707,5806,1020.2899780273438000,249.9078063964843800,550.7567749023438000,5.9456839561462400,36.0583305358886700,53,102,104,80,81,14750,2146959186,2147515172,2147299501,2147531840,2147089289,2146915913,2147722358,2147117120,3314,-1,8,8757
1340914307,5804,1016.9500122070312000,249.3811950683593800,550.8922729492188000,5.9414310455322270,36.0866584777832000,52,102,103,80,82,14751,2146956205,2147516644,2147300269,2147529453,2147088603,2146910610,2147727104,2147116635,3529,-1,8,8341
1340917907,5807,1010.6300048828125000,250.4701995849609400,552.4251098632812000,5.8932991027832030,36.0613288879394500,52,102,102,80,82,14749,2146958546,2147516699,2147297828,2147531346,2147090688,2146914276,2147728484,2147115766,3374,-1,8,4854
1340921507,5805,1021.7899780273438000,252.0460968017578000,554.0449218750000000,5.8424129486083980,36.0139083862304700,53,104,102,80,82,14746,2146956150,2147517494,2147300653,2147529892,2147092278,2146914020,2147725961,2147112960,3466,-1,8,54887
1340925107,5807,1021.2100219726562000,249.6822052001953000,550.9583740234375000,5.9393558502197270,36.0733795166015600,52,104,101,79,81,14743,2146954496,2147517357,2147299885,2147527424,2147091648,2146919460,2147728603,2147115638,141,-1,7,3821
1340928707,5805,1023.7999877929688000,247.5065002441406200,549.1693725585938000,5.9955101013183590,36.1481781005859400,52,107,101,84,81,14746,2146959104,2147515931,2147299520,2147529270,2147088768,2146914752,2147724370,2147117229,3506,-1,8,28751
1340932307,5808,1023.8200073242188000,248.3524017333984400,550.5526733398438000,5.9520912170410160,36.1310997009277340,52,104,101,80,82,14746,2146961051,2147518217,2147297947,2147531465,2147092955,2146909092,2147726454,2147115456,3586,-1,8,1232
1340935907,5809,1030.5300292968750000,246.7552032470703000,548.8513793945312000,6.0054907798767090,36.1792297363281250,52,104,99,79,82,14747,2146956370,2147519506,2147299309,2147530925,2147092553,2146914660,2147720064,2147116681,8,-1,8,40361
1340939507,5806,1026.5999755859375000,246.9707946777343800,550.4882202148438000,5.9541192054748535,36.1984596252441400,52,104,101,80,82,14745,2146959277,2147518966,2147299986,2147531437,2147090660,2146911213,2147723657,2147115254,3026,-1,8,57516
1340943107,5802,1021.5599975585938000,247.8955993652343800,550.2432861328125000,5.9618067741394040,36.1478309631347660,53,106,100,80,81,14743,2146957403,2147516352,2147300662,2147530331,2147091291,2146915126,2147728054,2147115986,3198,-1,8,30736
1340946707,5804,1021.5399780273438000,250.0879058837890600,552.6483764648438000,5.8862838745117190,36.0841102600097660,51,105,101,79,82,14736,2146958052,2147517056,2147298916,2147525842,2147088694,2146918957,2147723373,2147115876,3276,-1,8,40728
1340950307,5807,1021.4000244140625000,250.9788970947265600,553.8228149414062000,5.8493938446044920,36.0613517761230500,52,103,101,79,82,14742,2146960914,2147516242,2147300772,2147530066,2147091090,2146913435,2147728210,2147116059,2738,-1,8,44226
1340953907,5802,1021.5800170898438000,251.9199981689453000,553.8287963867188000,5.8492050170898440,36.0159797668457000,52,103,101,78,81,14741,2146959524,2147519076,2147302070,2147532525,2147089846,2146913261,2147727908,2147116105,3506,-2,8,65472
1340957507,5803,1026.3000488281250000,252.0661926269531200,552.8060302734375000,5.8813338279724120,35.9899406433105500,52,105,100,79,82,14738,2146959661,2147520009,2147300480,2147530386,2147088539,2146912841,2147724352,2147115739,2816,-1,8,54251
1340961107,5807,1028.2199707031250000,250.6696929931640600,551.7490844726562000,5.9145298004150390,36.0391883850097660,52,107,103,79,81,14741,2146957842,2147521289,2147297673,2147530651,2147087305,2146919241,2147730560,2147115593,655,-1,8,54989
1340964707,5805,1029.7399902343750000,246.0585021972656200,547.5968017578125000,6.0448508262634280,36.1916694641113300,52,105,101,79,82,14735,2146958838,2147515099,2147299565,2147533165,2147088374,2146919725,2147725092,2147114020,3292,-1,8,10119
1340968307,5807,1030.4300537109375000,246.7834930419922000,549.0244140625000000,6.0000610351562500,36.1812896728515600,52,104,99,79,81,14737,2146959917,2147516891,2147300489,2147530185,2147091090,2146911890,2147724900,2147114633,258,-1,8,57240
1340971907,5805,1032.1600341796875000,246.3325042724609400,549.1129760742188000,5.9972801208496090,36.2055282592773440,52,101,101,79,81,14734,2146957851,2147518482,2147297170,2147528978,2147090441,2146911725,2147727844,2147117074,3113,-1,8,12050
1340975507,5804,1030.7299804687500000,246.8941955566406200,549.2916259765625000,5.9916782379150390,36.1804695129394500,53,102,101,79,81,14736,2146957156,2147516041,2147299922,2147530066,2147090651,2146914240,2147723949,2147113654,130,-1,8,31773
1340977555,5802,1023.7600097656250000,244.5879974365234400,546.0117187500000000,6.0945677757263180,36.2362518310546900,52,103,101,80,82,14753,2146961426,2147517504,2147301988,2147528338,2147088758,2146913865,2147721718,2147118656,606,-1,8,23945
